Simultaneous Nadir Overpasses (SNOs) Predictions

Prediction of SNOs between GOES-16 and METOP-B Satellite Orbit:

Table of predicted SNOs for the next 14.0 days since TLE Epoch: 7/21/2023
Index Date Time (GOES-16) GOES-16 Lat,Lon METOP-B Lat,Lon Distance(km) Time Diff (sec)
1 07/22/2023 14:19:18 -0.00, -75.21 -0.63, -72.29 331.53 80
2 07/24/2023 02:35:38 0.01, -75.21 -0.34, -76.90 191.60 80
3 07/25/2023 02:17:36 0.01, -75.22 0.72, -71.89 378.69 80
4 07/26/2023 14:33:46 -0.01, -75.24 0.27, -76.45 138.78 80
5 07/27/2023 14:15:46 -0.01, -75.24 -0.86, -71.46 431.54 80
6 07/29/2023 02:32:04 0.01, -75.25 -0.16, -76.05 91.31 80
7 07/30/2023 02:14:04 0.01, -75.26 0.97, -71.06 479.06 80
8 07/31/2023 14:30:13 -0.02, -75.28 0.06, -75.61 38.21 80
9 08/03/2023 02:31:11 0.02, -75.30 0.07, -75.21 11.10 80
